Regional Weather Roundup
Issued by NWS

Home | Current Version | Previous Version | Text Only | Print | Product List | Glossary On
Versions: 1 2 3 4 5 6 7 8 9 10 11 12 13 14 15 16 17 18 19 20 21 22 23 24 25 26 27 28 29 30 31 32 33 34 35 36 37 38 39 40 41 42 43 44 45 46
000
ASUS44 KBMX 311110
RWRAL

ALABAMA REGIONAL WEATHER ROUNDUP
NATIONAL WEATHER SERVICE BIRMINGHAM AL
600 AM CDT FRI JUL 31 2015

NOTE: "FAIR" INDICATES FEW OR NO CLOUDS BELOW 12,000 FEET
WITH NO SIGNIFICANT WEATHER AND/OR OBSTRUCTIONS TO VISIBILITY.

THE REMARK "TC" DENOTES TEMPERATURE IN DEGREES CELSIUS.

ALZ001>011-014-016>018-020-311200-
NORTH ALABAMA

CITY           SKY/WX    TMP DP  RH WIND       PRES   REMARKS
MUSCLE SHOALS  CLEAR     71  61  70 N5        30.07R
HUNTSVILLE     PTCLDY    70  61  73 N6        30.04R
DECATUR        CLEAR     62  62 100 N5        30.05R
HALEYVILLE     FAIR      67  61  81 CALM      30.08R
GADSDEN        CLEAR     68  57  68 N8        30.00R
$$

ALZ012-013-022-023-030>036-040>044-311200-
WEST CENTRAL ALABAMA

CITY           SKY/WX    TMP DP  RH WIND       PRES   REMARKS
TUSCALOOSA     CLEAR     72  63  73 N6        30.00R
$$

ALZ015-024>027-033>036-040>044-311200-
CENTRAL ALABAMA

CITY           SKY/WX    TMP DP  RH WIND       PRES   REMARKS
BIRMINGHAM     PTCLDY    69  64  84 N3        30.02R
MONTGOMERY     CLEAR     76  67  73 N5        29.94R
SHELBY CO ARPT CLEAR     74  62  66 N7        29.98R
MAXWELL AFB    CLEAR     75  68  77 N7        29.94R
GREENVILLE     FAIR      76  69  79 N5        29.94R
$$

ALZ019-021-028-029-037-038-045>048-311200-
EAST CENTRAL ALABAMA

CITY           SKY/WX    TMP DP  RH WIND       PRES   REMARKS
ANNISTON       CLEAR     73  63  70 N8        29.99R
ALEXANDER CITY CLEAR     73  63  70 N3        29.96S
AUBURN         CLEAR     73  72  94 N6        29.97R
$$

ALZ051>064-311200-
SOUTHWEST ALABAMA

CITY           SKY/WX    TMP DP  RH WIND       PRES   REMARKS
MOBILE         CLOUDY    75  73  93 N10       29.93R
BROOKLEY FIELD CLOUDY    78  71  79 N8        29.92S
EVERGREEN      PTCLDY    75  71  87 N3        29.93R
$$

ALZ049-050-065>069-311200-
SOUTHEAST ALABAMA

CITY           SKY/WX    TMP DP  RH WIND       PRES   REMARKS
DOTHAN         PTCLDY    75  74  96 N3        29.95R FOG
OZARK          MOCLDY    76  75  99 N3        29.92R
TROY           CLEAR     75  73  93 NE3       29.94R
EUFAULA        FAIR      76  75  97 CALM      29.92R FOG
$$


USA.gov is the U.S. government's official web portal to all federal, state and local government web resources and services.